| time (UTC) | temp F | wind direction | speed MPH | gust MPH | rain 1hr in | rain 24hr in | rain mn in | humidity % | barometer mb |
| 20260903121545 | 69 | 285 | 0.0 | 1.0 | 0.00 | 1.79 | 0.06 | 1 | 1013.1 |
| 20260903120041 | 68 | 292 | 0.0 | 0.0 | 0.00 | 1.79 | 0.06 | 1 | 1012.8 |
| 20260903114544 | 67 | 287 | 0.0 | 1.0 | 0.00 | 1.79 | 0.06 | 1 | 1012.9 |
| 20260903113032 | 66 | 287 | 0.0 | 2.0 | 0.00 | 1.79 | 0.06 | 1 | 1012.9 |
| 20260903111537 | 66 | 287 | 1.0 | 2.0 | 0.00 | 1.79 | 0.06 | 1 | 1012.6 |
| 20260903110022 | 66 | 287 | 0.0 | 2.0 | 0.00 | 1.79 | 0.06 | 1 | 1012.6 |
| 20260903104519 | 66 | 287 | 0.0 | 1.0 | 0.00 | 1.79 | 0.06 | 1 | 1012.5 |
| 20260903103013 | 66 | 287 | 0.0 | 3.0 | 0.00 | 1.79 | 0.06 | 1 | 1012.5 |
| 20260903101509 | 66 | 287 | 0.0 | 2.0 | 0.00 | 1.79 | 0.06 | 1 | 1012.5 |
| 20260903100005 | 66 | 287 | 0.0 | 2.0 | 0.00 | 1.79 | 0.06 | 1 | 1012.7 |
| 20260903094607 | 66 | 287 | 0.0 | 2.0 | 0.00 | 1.79 | 0.06 | 1 | 1012.8 |
| 20260903093109 | 66 | 287 | 0.0 | 2.0 | 0.00 | 1.79 | 0.06 | 1 | 1013.1 |
| 20260903091551 | 66 | 287 | 0.0 | 1.0 | 0.00 | 1.79 | 0.06 | 1 | 1013.1 |
| 20260903090054 | 66 | 287 | 0.0 | 2.0 | 0.00 | 1.79 | 0.06 | 1 | 1012.9 |
| 20260903084543 | 66 | 287 | 0.0 | 2.0 | 0.00 | 1.79 | 0.06 | 1 | 1012.7 |
| 20260903083039 | 66 | 287 | 1.0 | 2.0 | 0.00 | 1.79 | 0.06 | 1 | 1012.6 |
| 20260903081535 | 66 | 287 | 0.0 | 1.0 | 0.00 | 1.79 | 0.06 | 1 | 1012.8 |
| 20260903080030 | 66 | 287 | 0.0 | 1.0 | 0.00 | 1.79 | 0.06 | 1 | 1012.9 |
| 20260903074525 | 66 | 287 | 0.0 | 2.0 | 0.00 | 1.79 | 0.06 | 1 | 1012.8 |
| 20260903073021 | 66 | 287 | 0.0 | 1.0 | 0.00 | 1.79 | 0.06 | 1 | 1013.1 |
| 20260903071516 | 66 | 287 | 0.0 | 2.0 | 0.00 | 1.79 | 0.06 | 1 | 1012.7 |
| 20260903070012 | 66 | 287 | 1.0 | 3.0 | 0.00 | 1.79 | 0.06 | 1 | 1012.7 |
| 20260903064508 | 66 | 287 | 1.0 | 2.0 | 0.00 | 1.79 | 0.06 | 1 | 1013.1 |
| 20260903063003 | 66 | 287 | 0.0 | 3.0 | 0.00 | 1.79 | 0.06 | 1 | 1012.9 |
| 20260903061600 | 67 | 287 | 1.0 | 3.0 | 0.00 | 1.79 | 0.06 | 1 | 1013.1 |
| 20260903054551 | 67 | 292 | 3.0 | 8.0 | 0.01 | 1.79 | 0.06 | 1 | 1013.0 |
| 20260903053045 | 67 | 239 | 2.0 | 10.0 | 0.04 | 1.79 | 0.06 | 1 | 1013.1 |
| 20260903051545 | 67 | 10 | 2.0 | 7.0 | 0.07 | 1.79 | 0.06 | 1 | 1013.2 |
| 20260903050050 | 67 | 192 | 2.0 | 11.0 | 0.10 | 1.79 | 0.06 | 1 | 1013.0 |
| 20260903044533 | 67 | 121 | 2.0 | 8.0 | 0.17 | 1.78 | 0.05 | 1 | 1013.3 |
| 20260903043028 | 68 | 232 | 3.0 | 8.0 | 0.15 | 1.75 | 0.02 | 1 | 1014.2 |
| 20260903041524 | 69 | 274 | 1.0 | 4.0 | 0.15 | 1.72 | 1.72 | 1 | 1015.4 |
| 20260903040020 | 69 | 295 | 2.0 | 9.0 | 0.17 | 1.69 | 1.69 | 1 | 1015.9 |
| 20260903034525 | 69 | 251 | 1.0 | 5.0 | 0.15 | 1.61 | 1.61 | 1 | 1014.3 |
| 20260903033010 | 69 | 145 | 0.0 | 3.0 | 0.22 | 1.60 | 1.60 | 1 | 1013.5 |
| 20260903031506 | 69 | 233 | 2.0 | 9.0 | 0.23 | 1.57 | 1.57 | 1 | 1013.9 |
| 20260903030002 | 70 | 201 | 2.0 | 7.0 | 0.49 | 1.52 | 1.52 | 1 | 1014.1 |
| 20260903024557 | 70 | 196 | 2.0 | 8.0 | 0.44 | 1.46 | 1.46 | 1 | 1015.3 |
| 20260903023053 | 70 | 260 | 2.0 | 7.0 | 0.37 | 1.38 | 1.38 | 1 | 1015.5 |
| 20260903021548 | 70 | 182 | 1.0 | 6.0 | 0.33 | 1.34 | 1.34 | 1 | 1015.5 |
| 20260903020049 | 71 | 316 | 3.0 | 10.0 | 0.02 | 1.03 | 1.03 | 1 | 1016.5 |
| 20260903014548 | 72 | 199 | 3.0 | 9.0 | 0.01 | 1.02 | 1.02 | 1 | 1014.1 |
| 20260903013034 | 72 | 173 | 2.0 | 8.0 | 0.00 | 1.01 | 1.01 | 1 | 1014.7 |
| 20260903011543 | 72 | 292 | 0.0 | 4.0 | 0.00 | 1.01 | 1.01 | 1 | 1014.7 |
| 20260903010030 | 72 | 69 | 0.0 | 3.0 | 0.00 | 1.01 | 1.01 | 1 | 1014.4 |
| 20260903004522 | 72 | 128 | 2.0 | 7.0 | 0.00 | 1.01 | 1.01 | 1 | 1013.9 |
| 20260903003017 | 72 | 71 | 5.0 | 8.0 | 0.00 | 1.01 | 1.01 | 1 | 1013.5 |
| 20260903001512 | 72 | 247 | 0.0 | 4.0 | 0.00 | 1.01 | 1.01 | 1 | 1013.9 |
| 20260903000016 | 73 | 92 | 0.0 | 3.0 | 0.00 | 1.01 | 1.01 | 1 | 1013.7 |
| 20260902234507 | 73 | 101 | 1.0 | 6.0 | 0.00 | 1.01 | 1.01 | 1 | 1014.2 |
| 20260902233101 | 73 | 84 | 1.0 | 4.0 | 0.00 | 1.01 | 1.01 | 1 | 1014.2 |
| 20260902231605 | 74 | 80 | 0.0 | 7.0 | 0.00 | 1.01 | 1.01 | 1 | 1013.9 |
| 20260902230052 | 75 | 107 | 1.0 | 7.0 | 0.00 | 1.01 | 1.01 | 1 | 1013.6 |
| 20260902224554 | 75 | 138 | 3.0 | 6.0 | 0.00 | 1.01 | 1.01 | 1 | 1013.6 |
| 20260902223042 | 75 | 123 | 1.0 | 14.0 | 0.00 | 1.01 | 1.01 | 1 | 1013.7 |
| 20260902221546 | 75 | 126 | 2.0 | 8.0 | 0.00 | 1.01 | 1.01 | 1 | 1013.9 |
| 20260902220035 | 75 | 89 | 3.0 | 9.0 | 0.00 | 1.01 | 1.01 | 1 | 1014.1 |
| 20260902214535 | 75 | 134 | 3.0 | 11.0 | 0.00 | 1.01 | 1.01 | 1 | 1014.4 |
| 20260902213033 | 76 | 292 | 1.0 | 3.0 | 0.00 | 1.01 | 1.01 | 1 | 1014.6 |
| 20260902211539 | 76 | 269 | 0.0 | 7.0 | 0.00 | 1.01 | 1.01 | 1 | 1014.4 |
| 20260902210026 | 77 | 360 | 1.0 | 5.0 | 0.00 | 1.01 | 1.01 | 1 | 1014.6 |
| 20260902204520 | 76 | 146 | 3.0 | 6.0 | 0.00 | 1.01 | 1.01 | 1 | 1014.4 |
| 20260902203016 | 76 | 207 | 3.0 | 9.0 | 0.00 | 1.01 | 1.01 | 1 | 1014.0 |
| 20260902201511 | 76 | 120 | 4.0 | 9.0 | 0.00 | 1.01 | 1.01 | 1 | 1014.2 |
| 20260902200008 | 75 | 102 | 3.0 | 9.0 | 0.00 | 1.01 | 1.01 | 1 | 1014.5 |
| 20260902194502 | 74 | 177 | 2.0 | 9.0 | 0.00 | 1.01 | 1.01 | 1 | 1015.1 |
| 20260902193058 | 74 | 213 | 2.0 | 4.0 | 0.00 | 1.01 | 1.01 | 1 | 1015.1 |
| 20260902191553 | 73 | 218 | 3.0 | 7.0 | 0.00 | 1.01 | 1.01 | 1 | 1015.2 |
| 20260902190049 | 73 | 238 | 1.0 | 7.0 | 0.00 | 1.01 | 1.01 | 1 | 1015.2 |
| 20260902184553 | 72 | 111 | 1.0 | 9.0 | 0.00 | 1.01 | 1.01 | 1 | 1015.2 |
| 20260902183040 | 72 | 134 | 3.0 | 8.0 | 0.00 | 1.01 | 1.01 | 1 | 1015.0 |
| 20260902181541 | 72 | 112 | 3.0 | 8.0 | 0.00 | 1.01 | 1.01 | 1 | 1015.2 |
| 20260902180032 | 72 | 88 | 4.0 | 8.0 | 0.00 | 1.01 | 1.01 | 1 | 1015.6 |
| 20260902174529 | 70 | 97 | 3.0 | 8.0 | 0.00 | 1.01 | 1.01 | 1 | 1015.8 |
| 20260902173023 | 69 | 109 | 4.0 | 8.0 | 0.00 | 1.01 | 1.01 | 1 | 1016.1 |
| 20260902171518 | 69 | 60 | 5.0 | 9.0 | 0.00 | 1.01 | 1.01 | 1 | 1016.4 |
| 20260902170015 | 69 | 88 | 3.0 | 13.0 | 0.00 | 1.01 | 1.01 | 1 | 1016.5 |
| 20260902164510 | 70 | 128 | 6.0 | 13.0 | 0.01 | 1.01 | 1.01 | 1 | 1016.4 |
| 20260902163006 | 70 | 84 | 3.0 | 8.0 | 0.02 | 1.01 | 1.01 | 1 | 1016.4 |
| 20260902161516 | 70 | 111 | 3.0 | 9.0 | 0.02 | 1.01 | 1.01 | 1 | 1016.3 |
| 20260902160008 | 70 | 83 | 4.0 | 8.0 | 0.03 | 1.01 | 1.01 | 1 | 1016.0 |
| 20260902154511 | 71 | 103 | 2.0 | 7.0 | 0.02 | 1.00 | 1.00 | 1 | 1016.0 |
| 20260902153100 | 71 | 246 | 0.0 | 5.0 | 0.06 | 1.00 | 1.00 | 1 | 1016.2 |
| 20260902151555 | 71 | 194 | 1.0 | 8.0 | 0.51 | 0.99 | 0.99 | 1 | 1016.0 |
| 20260902150051 | 70 | 270 | 1.0 | 3.0 | 0.98 | 0.98 | 0.98 | 1 | 1016.3 |
| 20260902144546 | 70 | 130 | 2.0 | 5.0 | 0.98 | 0.98 | 0.98 | 1 | 1016.1 |
| 20260902143042 | 71 | 217 | 2.0 | 4.0 | 0.93 | 0.93 | 0.93 | 1 | 1015.6 |
| 20260902141537 | 71 | 216 | 0.0 | 3.0 | 0.46 | 0.64 | 0.46 | 1 | 1016.3 |
| 20260902140033 | 71 | 269 | 1.0 | 3.0 | 0.00 | 0.18 | 0.00 | 1 | 1016.1 |
| 20260902134536 | 71 | 355 | 0.0 | 3.0 | 0.00 | 0.18 | 0.00 | 1 | 1016.5 |
| 20260902133025 | 71 | 355 | 2.0 | 4.0 | 0.00 | 0.18 | 0.00 | 1 | 1016.1 |
| 20260902131519 | 71 | 247 | 0.0 | 4.0 | 0.00 | 0.98 | 0.00 | 1 | 1016.1 |
| 20260902130015 | 71 | 248 | 0.0 | 5.0 | 0.00 | 0.98 | 0.00 | 1 | 1016.0 |
| 20260902124510 | 70 | 48 | 0.0 | 2.0 | 0.00 | 0.98 | 0.00 | 1 | 1016.0 |
| 20260902123007 | 70 | 48 | 0.0 | 1.0 | 0.00 | 0.98 | 0.00 | 1 | 1015.7 |